Tracking 29892 objects as of 21-Nov-2024
HD Live streaming from Space Station
objects crossing your sky now

SL-8 R/B

Track SL-8 R/B now!
10-day predictions


NORAD ID: 20150
Int'l Code: 1989-059B
Perigee: 965.6 km
Apogee: 1,006.0 km
Inclination: 82.9 °
Period: 104.7 minutes
Semi major axis: 7356 km
RCS: 4.4754 m2 (large)
Launch date: July 25, 1989
Source: Commonwealth of Independent States (former USSR) (CIS)
Launch site: PLESETSK MISSILE AND SPACE COMPLEX (PKMTR)

Note: This is a ROCKET BODY
Your satellite tracking list
Your tracking list is empty




NASA's NSSDC Master Catalog

Two Line Element Set (TLE):
1 20150U 89059B   24325.78884087  .00000142  00000-0  13090-3 0  9998
2 20150  82.9418 240.9320 0027422 264.7054 102.8259 13.75846266773278
Source of the keplerian elements: AFSPC